FW6587 Weather Reports


Display with metric or nautical units.
time (UTC)temp
F
wind
direction
speed
MPH
gust
MPH
rain 1hr
in
rain 24hr
in
rain mn
in
humidity
%
barometer
mb
20260503051549 53 255 0.0 4.0 0.00 0.00 0.00 21 1026.8
20260503050052 53 0 0.0 3.0 0.00 0.00 0.00 22 1026.7
20260503044552 54 0 0.0 2.0 0.00 0.00 0.00 22 1026.7
20260503043047 54 0 0.0 2.0 0.00 0.00 0.00 21 1026.8
20260503041550 54 0 0.0 3.0 0.00 0.00 0.00 21 1026.8
20260503040051 55 0 0.0 3.0 0.00 0.00 0.00 21 1026.8
20260503034603 55 0 0.0 2.0 0.00 0.00 0.00 21 1026.6
20260503033056 56 0 0.0 2.0 0.00 0.00 0.00 19 1026.7
20260503031554 57 0 0.0 1.0 0.00 0.00 0.00 18 1026.6
20260503030049 58 303 0.0 3.0 0.00 0.00 0.00 18 1026.6
20260503024551 59 0 0.0 4.0 0.00 0.00 0.00 17 1026.4
20260503023047 59 0 0.0 2.0 0.00 0.00 0.00 17 1026.3
20260503021548 60 0 0.0 0.0 0.00 0.00 0.00 16 1026.2
20260503020055 62 0 0.0 0.0 0.00 0.00 0.00 14 1026.0
20260503014600 64 0 0.0 1.0 0.00 0.00 0.00 14 1025.9
20260503013052 66 0 0.0 3.0 0.00 0.00 0.00 11 1025.7
20260503011551 68 146 0.0 4.0 0.00 0.00 0.00 10 1025.7
20260503010051 69 124 0.0 4.0 0.00 0.00 0.00 9 1025.7
20260503004555 71 69 1.0 4.0 0.00 0.00 0.00 9 1025.7
20260503003104 73 97 1.0 4.0 0.00 0.00 0.00 8 1025.7
20260503001608 74 138 1.0 4.0 0.00 0.00 0.00 7 1025.8
20260503000053 74 38 1.0 6.0 0.00 0.00 0.00 9 1026.0
20260502234553 75 67 2.0 7.0 0.00 0.00 0.00 8 1026.1
20260502233051 74 0 1.0 7.0 0.00 0.00 0.00 8 1026.1
20260502231551 73 0 0.0 6.0 0.00 0.00 0.00 10 1026.3
20260502230050 73 0 1.0 5.0 0.00 0.00 0.00 9 1026.2
20260502224551 75 78 1.0 8.0 0.00 0.00 0.00 9 1026.4
20260502223054 74 309 0.0 8.0 0.00 0.00 0.00 9 1026.6
20260502221550 74 130 2.0 7.0 0.00 0.00 0.00 10 1026.7
20260502220045 73 135 3.0 9.0 0.00 0.00 0.00 11 1026.8
20260502214600 73 112 0.0 10.0 0.00 0.00 0.00 11 1027.2
20260502213054 74 66 1.0 4.0 0.00 0.00 0.00 11 1027.5
20260502211554 71 114 0.0 4.0 0.00 0.00 0.00 11 1027.7
20260502210114 72 119 2.0 10.0 0.00 0.00 0.00 11 1028.0
20260502204555 73 307 2.0 8.0 0.00 0.00 0.00 12 1028.1
20260502203054 72 93 2.0 5.0 0.00 0.00 0.00 12 1028.2
20260502201607 71 267 1.0 7.0 0.00 0.00 0.00 12 1028.4
20260502200053 71 34 3.0 9.0 0.00 0.00 0.00 14 1028.5
20260502194551 69 105 0.0 4.0 0.00 0.00 0.00 16 1028.7
20260502193054 68 109 0.0 9.0 0.00 0.00 0.00 17 1029.0
20260502191553 69 130 1.0 4.0 0.00 0.00 0.00 16 1029.1
20260502190057 68 82 1.0 7.0 0.00 0.00 0.00 17 1029.3
20260502184605 67 312 1.0 8.0 0.00 0.00 0.00 17 1029.6
20260502183102 68 0 1.0 7.0 0.00 0.00 0.00 18 1029.9
20260502181608 67 263 2.0 6.0 0.00 0.00 0.00 19 1030.1
20260502163057 61 110 0.0 4.0 0.00 0.00 0.00 23 1030.8
20260502161549 61 107 1.0 4.0 0.00 0.00 0.00 22 1031.0
20260502151551 59 0 1.0 3.0 0.00 0.00 0.00 28 1031.5
20260502150103 57 142 0.0 3.0 0.00 0.00 0.00 29 1031.5
20260502123105 37 0 0.0 0.0 0.00 0.00 0.00 53 1031.5
20260502121557 38 0 0.0 0.0 0.00 0.00 0.00 50 1031.2
20260502114558 40 0 0.0 0.0 0.00 0.00 0.00 48 1031.1
20260502113053 41 0 0.0 1.0 0.00 0.00 0.00 47 1031.0
20260502111601 41 0 0.0 1.0 0.00 0.00 0.00 45 1031.0
20260502104552 42 0 0.0 1.0 0.00 0.00 0.00 44 1030.8
20260502103058 42 267 1.0 3.0 0.00 0.00 0.00 43 1030.8
20260502101631 42 269 0.0 1.0 0.00 0.00 0.00 43 1030.8
20260502100118 43 0 0.0 0.0 0.00 0.00 0.00 43 1030.6
20260502070054 45 241 2.0 7.0 0.00 0.00 0.00 39 1031.2
20260502064558 45 257 1.0 4.0 0.00 0.00 0.00 39 1031.4
20260502063057 46 0 1.0 8.0 0.00 0.00 0.00 38 1031.3
20260502061552 46 0 0.0 3.0 0.00 0.00 0.00 38 1031.2
20260502060056 47 0 0.0 2.0 0.00 0.00 0.00 38 1031.3
20260502054559 47 0 0.0 3.0 0.00 0.00 0.00 38 1031.2
20260502053109 47 0 0.0 0.0 0.00 0.00 0.00 38 1031.3